Regional Weather Roundup
Issued by NWS Upton, NY

Current Version | Previous Version | Text Only | Print | Product List | Glossary On
Versions: 1 2 3 4 5 6 7 8 9 10 11 12 13 14 15 16 17 18 19 20 21 22 23 24 25 26 27 28 29 30 31 32 33 34 35 36 37 38 39 40 41 42 43 44 45 46 47 48 49 50
860
ASUS41 KOKX 281904
RWROKX

REGIONAL WEATHER ROUNDUP
NATIONAL WEATHER SERVICE NEW YORK NY
300 PM EDT THU JUL 28 2016

NOTE: "FAIR" INDICATES FEW OR NO CLOUDS BELOW 12,000 FEET WITH NO
SIGNIFICANT WEATHER AND/OR OBSTRUCTIONS TO VISIBILITY.

NYZ071-072-176-178-NJZ106-104-282000-
NEW YORK CITY METRO AREA

CITY           SKY/WX    TMP DP  RH WIND       PRES   REMARKS
Central Park   MOSUNNY   92  65  40 VRB5      29.87F HX  94
LaGuardia APRT MOSUNNY   93  62  35 S12G18    29.84F HX  93
Kennedy INTL   PTSUNNY   85  74  69 S14       29.88S HX  92
Newark/Liberty PTSUNNY   91  66  43 S14       29.84F HX  93
Bronx Bot Gard   N/A    N/A N/A N/A NE1       29.86R
Wall St Helipt CLEAR     91  66  43 S10G16    29.86S HX  94
Teterboro      MOSUNNY   93  56  28 E6        29.82F HX  91
$$

NYZ177-179-078>081-282000-
LONG ISLAND NEW YORK

CITY           SKY/WX    TMP DP  RH WIND       PRES   REMARKS
Farmingdale    SUNNY     88  74  63 S15       29.87F HX  96
MacArthur/ISP  MOSUNNY   85  73  67 S13       29.87F HX  91
Shirley        SUNNY     87  72  60 S12       29.88F HX  93
Riverhead      NOT AVBL
Westhampton    SUNNY     83  71  67 S10       29.89F
Southhampton     N/A     81  75  83 S7        29.84F
Bridgehampton    N/A     84  73  70 S5        29.88F HX  91
East Hampton   FAIR      82  73  76 S9        29.88F
Montauk          N/A     81  75  82 S6        29.90F
$$

NYZ052-065-067-282000-
HUDSON VALLEY

CITY           SKY/WX    TMP DP  RH WIND       PRES   REMARKS
White Plains   MOSUNNY   88  63  43 S5        29.86F
Newburgh       MOSUNNY   90  64  43 CALM      29.87F HX  91
Montgomery     SUNNY     92  64  39 VRB3      29.85F HX  93
Poughkeepsie   MOSUNNY   93  62  35 CALM      29.83F HX  93
Albany         CLOUDY    90  62  39 SW10      29.84F HX  90
$$

NJZ001-105-106-008-010-013-015-019>022-104-282000-
NEW JERSEY

CITY           SKY/WX    TMP DP  RH WIND       PRES   REMARKS
Newark/Liberty PTSUNNY   91  66  43 S14       29.84F HX  93
Teterboro      MOSUNNY   93  56  28 E6        29.82F HX  91
Caldwell       SUNNY     95  59  30 VRB5      29.85F HX  94
Morristown     MOSUNNY   93  55  27 S8        29.86F HX  91
Somerville     PTSUNNY   91  65  41 SW3       29.83S HX  93
Linden         FAIR      92  60  34 SE9       29.87R HX  91
Sussex         PTSUNNY   91  61  36 VRB6      29.87F HX  91
Abdover          N/A     91  63  39 CALM      29.87F HX  92
Trenton        CLOUDY    87  66  49 SW3       29.85F
Millville      TSTM      85  74  69 S7        29.87R HX  92
Atlantic City  CLOUDY    85  72  65 SE13      29.88  HX  91
Wrightstown    SUNNY     89  72  57 SE9       29.82F HX  96
Toms River     MOSUNNY   89  72  56 SE13      29.87S HX  96
Belmar         PTSUNNY   83  72  69 E9        29.89S
$$

PAZ047>061-062-071-282000-
EASTERN PENNSYLVANIA

CITY           SKY/WX    TMP DP  RH WIND       PRES   REMARKS
Philadelphia   TSTM      77  74  90 SW20G32   29.90R VSB 1
Allentown      CLOUDY    90  64  42 S7        29.86S HX  91
Scranton       MOSUNNY   88  65  46 W7        29.88S HX  90
$$

CTZ002-004>006-009-010-012-RIZ004-006-007-MAZ004-011-015-282000-
SOUTHERN NEW ENGLAND
 IN CT

CITY           SKY/WX    TMP DP  RH WIND       PRES   REMARKS
Bradley INTL   CLOUDY    93  61  34 VRB3      29.84F HX  93
Hartford       MOSUNNY   94  64  37 SE7       29.82F HX  95
Danbury        SUNNY     89  63  41 S7        29.87F HX  90
Wtrbury/Oxford MOSUNNY   88  63  42 VRB6      29.91F
Bridgeport     SUNNY     90  60  36 S10       29.85F
Meriden        SUNNY     94  61  33 W5        29.84F HX  94
New Haven      MOSUNNY   87  66  49 S9        29.86F
Chester        FAIR      90  59  35 S9G16     29.87F
Groton         SUNNY     81  73  76 S13       29.86F
Wilimantic     MOSUNNY   91  63  39 MISG      29.86F HX  92

 IN RI

CITY           SKY/WX    TMP DP  RH WIND       PRES   REMARKS
Providence     PTSUNNY   84  70  62 SE16G23   29.86F
Block Island   PTSUNNY   79  74  84 S13       29.89F
Westerly       SUNNY     81  70  69 S9        29.89F
 IN MA

CITY           SKY/WX    TMP DP  RH WIND       PRES   REMARKS
Boston         CLOUDY    86  64  47 E9        29.83F
Worchester     CLOUDY    86  59  39 W8        29.90F
Westfield      CLOUDY    91  59  33 NW7       29.84F HX  90
Provincetown   MOSUNNY   86  74  67 S13G18    29.87F HX  94
Nantucket      SUNNY     77  72  84 S10       29.91S
$$

ANZ330-335-338-340-345-350-353-355-282000-
COASTAL MARINE OBSERVATIONS


STATION/POSITION TIME  SKY/WX   TEMP    WIND        PRES    VSBY  WAVE
                                AIR SEA DIR/SP/G                  HT/PER
                 (UTC)          (F)     (DEG/KT/KT) (MB)    (MI)  (FT/S)
NY HARB ENTRANCE 1750            78 80  160/ 12/ 12 1011.7          1/ 8
20S FIRE ISLAND  1750            77 78  180/  8/ 10 1012.0          2/ 6
GREAT SOUTH BAY  1800            77 83  200/ 12/ 14   N/A
23 SSW MONTAUK P 1750            76 75  180/  4/  4 1013.0          1/ 6
15 E BARNEGAT LI 1800               80                N/A           1/ 6
HUDSON CANYON    1750            79 81              1012.6          1/ 6
KINGS POINT      1800            89 75              1011.0
EXECUTION ROCKS  1800            80      80/  6/  6   N/A
CENTRAL LI SOUND NOT AVBL
EASTERN LI SOUND 1800            74 70  170/ 10/ 14   N/A
ROBBINS REEF     1800            78     170/ 17/ 18 1010.4
$$


>>>>>>>>>>>>>>>>>>>>>>>>>>>> KEY <<<<<<<<<<<<<<<<<<<<<<<<<<<
>                                                          <
>     SKY/WX - Sky Condition/Present Weather               <
>     TMP    - Temperature in Fahrenheit                   <
>     DP     - Dew Point in Fahrenheit                     <
>     RH     - Relative Humidity in Percent                <
>     WIND   - Direction (from) and Speed in MPH           <
>     PRES   - Mean Sea Level Pressure (inches of Hg)      <
>     WCI    - Wind Chill Index                            <
>     VSB    - VISIBILITY IN MILES                         <
>     HX     - HEAT INDEX                                  <
>     TC     - TEMPERATURE IN CELSIUS                      <
>     VRB    - VARIABLE WIND DIRECTION                     <
>                                                          <
>>>>>>>>>>>>>>>>>>>>>>>>>>>> KEY <<<<<<<<<<<<<<<<<<<<<<<<<<<




USA.gov is the U.S. government's official web portal to all federal, state and local government web resources and services.